Location: Artesia Ranch
(38.9538°N, 119.3746°W)
Time: 06:36:55
(UTC+00:00)

Daily predictions for brighter satellites

Satellite Brightness Start Highest point End
(mag) Time Altitude Azimuth Time Altitude Azimuth Time Altitude Azimuth
ADEOS II 4.1 12:02:48 10° NW 12:04:32 12° WNW 12:06:15 10° W
SL-16 R/B 4.0 12:06:17 10° W 12:07:18 11° W 12:07:18 11° W
H-2A R/B 2.4 12:06:03 10° SSW 12:09:53 38° W 12:13:44 10° NNW
Cosmos 1125 Rocket 3.5 12:05:07 10° SSW 12:10:19 71° WNW 12:15:34 10° NNE
FALCON 9 DEB 3.3 12:08:03 10° WNW 12:11:26 50° SW 12:14:46 10° SSE
USA 267 3.2 12:08:54 10° SE 12:15:25 73° SW 12:21:59 10° NW
Cosmos 1932 4.5 12:10:58 10° NNW 12:17:27 84° WSW 12:23:46 10° SSE
Meteor 1-31 Rocket 4.4 12:14:41 10° NNE 12:18:16 36° E 12:21:48 10° SSE
Cosmos 1825 Rocket 3.7 12:15:17 10° NNW 12:19:30 52° W 12:23:41 10° S
Cosmos 1484 Rocket 3.9 12:18:54 10° NNE 12:22:27 43° E 12:25:59 10° S
Cosmos 2263 Rocket 3.5 12:18:12 11° WSW 12:22:28 24° NW 12:26:56 10° N
Aureole 3 4.4 12:17:41 10° SSW 12:22:33 55° WNW 12:28:46 10° N
Atlas Centaur 2 3.9 12:19:18 10° SW 12:26:05 36° SSE 12:33:35 10° E
Cosmos 1953 Rocket 3.6 12:22:03 10° NNW 12:26:32 70° W 12:30:57 10° S
Cosmos 494 Rocket 4.1 12:21:52 10° NNW 12:27:03 83° ENE 12:32:15 10° SSE
Delta 2 Rocket 3.7 12:25:29 10° WSW 12:29:00 46° S 12:33:01 10° E
Cosmos 1709 Rocket 4.3 12:23:57 10° N 12:30:09 74° E 12:36:15 10° SSE
CZ-4B R/B 1.3 12:34:07 10° S 12:37:23 59° W 12:40:35 10° NNW
SeaSat 1 3.4 12:33:37 10° N 12:37:58 32° NW 12:42:17 10° WSW
Cosmos 2315 Rocket 4.1 12:32:15 10° S 12:38:34 88° E 12:44:57 10° N
ERS-2 3.6 12:37:14 10° SW 12:39:49 18° W 12:42:26 10° NW
